Theta_e
300 293 289 293 294 295 294 292 290 295 298 294 296 295 298 299 298 298 298 298 299 299 302 303 304 306 307 308 308 307 305 306 307 306 305 305 306 307 308 306 308 308 308 309
294 289 296 298 297 295 293 291 291 294 296 293 295 294 297 296 296 296 296 296 297 298 299 302 303 304 305 305 305 306 306 307 307 307 307 307 307 308 307 307 307 308 308 309
291 293 298 296 295 293 292 291 290 291 293 294 293 292 293 295 296 297 296 296 297 297 297 299 302 303 303 303 304 306 306 306 306 307 308 308 309 308 307 306 305 307 308 309
292 296 295 294 292 293 288 293 294 292 289 283 292 284 289 293 293 293 294 293 293 295 298 300 301 301 303 303 305 306 306 306 308 308 307 306 306 304 306 306 306 306 308 309
289 292 292 291 292 294 291 295 293 292 288 287 287 284 289 294 290 290 291 292 292 295 297 298 299 302 303 304 303 304 305 306 307 307 307 306 306 306 306 305 306 306 307 309
292 296 295 293 294 295 296 294 294 293 290 280 288 287 286 285 287 289 290 291 291 293 294 297 300 302 302 302 302 303 303 303 305 305 306 306 307 306 304 306 305 306 307 309
290 291 293 295 291 294 293 290 282 279 278 280 287 285 284 287 288 288 288 288 290 291 291 292 293 294 295 296 298 301 302 302 303 303 304 305 306 306 306 307 308 308 309 309
284 281 290 294 293 289 290 290 284 278 279 280 284 281 283 288 290 290 289 289 289 288 289 289 289 290 291 293 294 295 296 297 298 301 302 304 306 306 307 307 308 308 310 312
283 283 291 293 294 293 289 285 290 282 278 279 283 283 286 288 287 287 287 287 286 287 287 287 288 289 289 290 291 292 293 293 295 296 297 301 304 305 305 307 307 308 310 311
290 281 288 291 293 292 290 292 284 284 274 275 280 281 282 285 284 285 284 284 285 286 286 287 287 287 288 289 289 289 290 290 292 294 296 298 300 303 305 306 306 307 308 309
294 289 284 289 288 288 288 287 287 288 284 278 277 278 285 284 285 283 283 284 284 285 285 285 286 287 287 287 287 287 288 288 289 290 291 292 293 295 298 300 301 303 306 307
295 291 281 283 288 290 289 288 289 282 280 280 280 278 287 285 285 285 284 284 285 285 285 285 285 286 286 286 286 286 287 287 288 289 289 289 290 291 291 292 294 297 299 303
295 286 281 283 287 288 286 288 289 287 285 280 278 278 286 285 284 285 283 284 284 284 284 284 285 284 284 284 285 285 285 286 287 288 287 287 288 288 288 289 290 292 294 297
296 289 286 281 283 287 283 286 288 287 281 281 281 278 281 283 282 283 283 284 283 283 283 282 282 282 281 281 283 283 283 284 284 284 284 284 285 287 287 288 289 289 290 290
291 285 286 286 287 287 286 285 287 286 286 283 283 282 282 284 283 283 284 284 283 281 281 280 280 279 278 279 280 281 280 281 281 281 280 280 282 283 284 285 286 287 288 289
290 283 285 282 287 286 284 286 287 287 287 286 283 281 285 284 284 283 283 283 281 280 280 279 279 279 278 278 279 279 279 279 279 279 279 280 280 281 281 282 282 283 284 286
286 283 281 279 283 283 278 284 286 283 282 282 282 282 284 282 283 282 282 282 281 279 279 278 278 278 277 277 278 278 278 279 279 278 278 278 279 279 279 281 281 281 281 282
283 281 282 275 276 272 279 282 283 284 281 283 283 283 284 282 282 282 283 281 280 279 278 277 278 277 276 277 277 278 278 278 277 277 277 277 277 277 278 279 279 279 280 281
284 282 275 274 272 277 278 279 281 281 279 284 283 283 282 282 281 279 282 281 280 279 278 278 278 277 276 275 276 277 277 276 276 275 275 275 276 276 276 276 277 278 278 279
283 283 277 273 270 269 278 280 282 282 275 282 283 282 281 281 276 276 280 280 279 279 278 277 277 278 276 275 276 276 275 274 273 274 274 274 274 274 273 274 275 277 277 278
270 272 270 272 270 272 278 280 282 273 275 281 282 283 282 279 278 280 280 279 279 278 277 276 276 275 275 275 274 274 274 272 273 273 273 272 272 273 273 274 275 275 275 276
269 268 266 267 266 268 280 279 275 278 281 281 280 281 281 279 279 278 278 277 276 276 276 275 274 274 274 274 273 273 272 272 271 270 269 270 271 272 273 273 273 274 274 274
267 272 272 272 271 275 280 278 280 281 279 279 279 279 279 278 277 276 276 276 275 275 275 275 272 273 273 274 273 271 271 270 268 266 267 268 269 271 272 271 271 272 272 272
271 271 270 272 270 272 275 279 280 281 281 281 280 279 279 277 277 277 277 277 276 275 275 273 272 272 271 272 272 270 269 268 264 264 265 267 268 269 269 270 271 271 270 270
272 274 272 272 274 275 273 279 280 281 281 280 279 278 278 277 277 277 276 276 275 275 273 272 271 271 270 270 269 267 267 264 263 264 265 266 267 266 267 268 269 270 271 271
273 273 271 271 276 276 278 280 282 279 278 278 276 274 276 277 276 275 275 275 274 273 271 270 269 268 268 266 265 263 260 261 260 262 264 264 264 264 265 266 266 270 271 272
Wind_Speed
8 4 9 15 10 2 3 2 3 5 3 1 4 3 3 12 13 13 13 14 13 14 13 10 9 9 9 9 9 8 9 7 3 1 1 2 3 2 3 3 4 4 2 2
5 10 8 4 6 4 3 3 1 4 2 1 5 5 12 13 12 13 12 12 13 13 13 10 9 9 10 9 9 9 7 5 5 4 3 3 2 3 3 1 2 3 3 3
9 1 8 5 4 6 6 5 2 2 3 5 3 4 9 9 11 13 14 12 13 12 10 10 13 13 10 10 9 8 8 8 6 5 2 1 1 1 2 2 2 2 3 3
5 4 8 5 8 6 8 6 4 3 1 3 1 3 5 11 12 15 13 13 11 9 10 10 11 10 9 8 8 9 8 7 6 8 6 6 3 4 4 3 2 2 3 3
4 5 6 8 9 10 2 1 7 5 3 5 2 4 1 11 8 13 11 11 10 10 10 9 9 9 8 8 7 7 7 7 7 7 7 5 6 4 2 2 3 2 0 2
4 2 1 2 4 3 6 6 6 0 3 2 6 6 1 4 4 6 8 10 11 12 13 15 13 12 11 9 8 7 8 7 7 7 7 7 7 6 5 5 3 2 1 1
4 4 3 1 6 4 3 5 2 2 1 5 4 3 3 7 7 7 8 9 10 10 10 12 13 13 12 13 13 10 9 9 9 8 8 7 8 6 6 6 5 5 4 2
5 3 8 6 1 7 6 2 3 6 5 4 2 5 2 7 7 8 9 8 9 9 10 10 11 10 11 12 12 12 13 12 13 11 8 7 9 4 3 5 4 5 4 4
7 3 3 4 4 2 5 4 0 4 1 4 5 5 4 7 7 8 9 9 9 9 10 10 10 11 11 11 13 13 13 12 12 10 9 8 7 7 5 5 4 3 4 4
3 6 1 1 1 0 0 1 3 3 3 3 1 5 4 8 8 8 8 8 8 8 9 10 11 12 11 11 11 13 13 13 12 13 11 11 11 10 9 5 5 5 5 4
4 3 1 3 6 6 3 3 1 1 2 3 3 2 5 9 8 8 7 8 7 8 8 9 9 10 10 10 11 12 12 13 13 13 12 13 13 14 13 13 13 13 9 7
4 3 4 2 2 2 3 2 5 4 4 1 2 2 6 7 7 8 8 7 7 7 7 8 9 10 10 11 10 12 12 13 13 12 12 14 13 14 14 14 14 13 13 13
4 1 4 2 1 2 2 4 2 5 2 4 5 2 6 7 6 7 8 6 6 7 8 8 9 9 10 10 11 11 12 12 12 12 12 13 14 14 14 13 13 13 14 14
2 2 2 2 3 1 4 5 5 3 3 4 2 7 9 9 9 7 7 6 6 7 8 8 8 9 9 10 10 11 11 12 12 12 12 13 14 13 13 13 13 13 13 13
3 3 3 4 5 5 5 3 5 7 5 2 3 5 12 11 10 7 6 6 7 8 8 7 7 7 8 9 9 9 10 10 10 11 12 12 12 12 12 13 13 13 13 12
3 3 2 2 3 3 2 2 4 3 3 7 11 6 9 12 10 6 6 7 7 7 7 8 8 8 9 9 9 8 9 10 9 10 11 10 11 11 12 12 12 13 13 13
2 5 3 4 2 3 2 6 5 4 4 3 5 6 11 11 9 7 7 6 5 6 6 6 6 7 7 7 7 7 8 8 9 9 10 11 12 12 12 12 12 12 12 12
3 3 1 3 1 3 2 2 2 7 4 5 9 8 8 9 9 6 4 5 5 5 6 6 5 5 5 5 6 5 6 7 8 9 10 11 11 11 11 11 11 12 12 12
5 2 3 5 3 1 2 4 6 6 5 6 10 11 13 11 8 4 4 5 6 5 5 5 4 5 5 5 6 6 5 6 8 9 10 11 11 12 11 12 12 10 12 11
3 3 4 1 4 7 2 4 1 1 3 8 9 12 13 11 4 4 7 7 6 5 5 4 3 4 5 5 6 6 6 7 9 11 11 11 11 11 12 11 12 11 10 11
3 2 4 2 2 4 4 6 2 6 6 6 8 10 12 5 2 9 9 6 5 5 5 3 4 4 5 5 6 6 6 8 9 10 11 11 11 12 11 11 10 10 12 11
6 6 4 3 3 8 7 5 7 4 6 7 7 5 8 10 8 7 7 7 7 6 5 4 3 4 4 5 4 5 6 7 8 10 11 10 10 10 9 11 11 11 10 11
2 5 5 7 6 3 5 2 1 3 5 6 7 6 8 9 7 8 6 7 6 6 5 4 3 2 3 5 4 6 7 9 10 9 9 9 10 9 9 10 11 9 9 9
3 2 2 4 3 3 3 2 2 3 5 7 7 7 8 7 8 6 6 6 5 5 4 4 2 2 2 4 5 5 7 8 7 9 9 9 9 9 9 8 8 8 8 8
3 6 5 3 2 3 4 5 8 6 8 8 7 6 6 9 7 6 5 6 5 5 5 4 2 1 2 4 4 4 5 5 7 8 8 8 7 9 9 9 8 8 9 11
7 8 7 8 9 6 5 13 11 10 8 8 7 4 3 6 7 5 5 5 5 5 4 3 3 2 2 3 3 3 3 3 5 8 7 7 8 8 8 9 10 14 18 20
Wind_Direction
202 194 202 200 213 71 12 154 291 84 94 320 228 250 351 69 57 51 47 36 30 18 20 11 2 3 37 60 79 91 94 100 115 169 133 87 79 71 61 39 20 36 18 17
113 222 225 246 217 180 248 141 160 66 72 346 15 321 89 75 66 59 49 38 26 23 18 12 22 28 35 56 65 71 84 74 46 38 23 35 43 80 96 69 50 9 12 7
157 69 198 168 150 189 224 187 135 46 323 214 295 123 113 94 86 67 52 39 27 22 21 24 38 33 34 38 55 61 51 49 36 33 30 0 28 39 59 25 51 42 356 10
241 131 161 180 200 206 226 205 210 263 48 249 258 263 194 138 88 59 45 37 24 12 41 38 45 43 37 36 44 56 51 41 26 13 21 21 32 31 45 19 342 46 358 357
171 150 156 189 201 187 158 179 176 197 213 300 194 83 272 160 71 51 45 39 25 17 33 48 52 55 40 30 36 49 56 47 26 34 29 28 23 28 37 314 337 24 336 352
91 351 68 157 57 129 161 103 71 129 210 354 213 140 264 36 34 47 48 46 34 31 28 29 38 41 37 26 26 32 43 23 26 35 26 36 31 19 4 3 356 11 14 8
124 116 82 263 91 80 234 165 69 18 20 222 2 94 82 82 69 64 57 51 46 36 37 33 30 29 30 23 20 21 26 27 16 20 17 21 24 17 8 2 348 360 357 345
155 197 180 181 222 176 198 230 166 182 182 192 28 217 131 95 85 81 75 64 56 47 42 41 32 29 30 27 24 21 18 21 15 7 4 6 18 14 5 3 4 342 353 350
162 114 31 9 15 97 174 211 348 111 107 74 174 90 122 128 95 76 67 62 53 53 47 42 35 32 31 27 28 20 20 17 13 5 359 356 358 12 2 359 360 327 334 343
55 113 317 105 309 99 79 96 135 328 125 201 173 138 117 178 110 81 63 54 57 49 53 46 43 36 30 28 29 26 25 19 12 9 5 5 10 2 6 357 351 340 326 336
1 72 97 151 208 168 179 167 217 162 130 182 159 180 352 93 96 98 84 64 51 52 49 48 46 45 37 33 32 28 24 21 20 15 15 17 7 9 14 11 6 360 346 339
55 45 137 171 58 53 333 251 173 136 226 212 123 190 77 90 97 107 93 86 74 59 50 48 46 38 36 34 26 28 23 21 19 19 20 22 15 14 13 6 359 356 358 351
153 73 118 39 359 37 223 197 315 94 62 198 140 208 123 126 109 100 102 85 71 64 55 44 39 37 32 28 24 28 26 14 15 21 20 21 17 16 13 7 1 357 358 356
174 147 39 96 80 298 183 192 191 183 131 185 224 148 175 159 140 126 107 92 77 62 53 47 41 35 29 27 22 23 25 15 14 21 20 20 13 13 8 3 4 4 3 1
74 115 77 69 33 29 35 56 182 213 247 290 55 85 166 161 143 130 119 109 86 67 58 50 47 42 34 29 23 28 25 19 16 23 20 18 9 8 4 3 1 3 4 360
344 109 99 70 113 62 100 38 36 39 29 109 113 86 108 104 114 131 119 103 88 78 66 54 50 44 35 26 28 27 26 20 16 20 19 11 10 8 3 1 358 360 359 355
113 138 158 123 133 132 259 196 167 104 55 3 183 137 133 140 139 124 112 102 101 86 78 69 58 56 43 23 15 27 22 16 19 15 14 6 4 360 357 349 352 355 353 348
122 106 86 125 134 215 179 40 312 105 109 101 104 119 127 105 89 98 118 140 108 87 77 70 61 59 57 29 10 15 22 19 14 12 7 360 355 350 347 342 345 345 342 339
16 98 101 138 184 171 186 199 165 184 186 165 139 126 118 123 124 124 116 87 97 96 91 86 75 62 64 33 357 11 19 19 11 8 360 354 346 341 339 337 336 337 331 327
21 31 109 134 151 205 160 144 102 15 282 170 148 145 147 158 176 163 149 135 119 110 92 86 60 76 59 29 1 15 6 20 7 359 351 345 341 337 333 331 330 329 321 318
47 19 142 186 215 296 141 140 149 108 217 138 138 151 156 170 139 128 120 108 113 124 121 99 78 75 64 41 10 15 1 14 354 349 341 336 335 330 327 327 329 326 325 321
163 137 190 64 72 275 138 73 164 196 105 126 129 132 143 123 127 134 139 141 147 149 142 97 72 63 68 60 22 358 10 358 355 344 330 326 320 323 327 327 322 327 323 323
274 177 182 168 211 250 166 138 186 119 140 146 130 133 129 136 147 151 151 145 149 150 138 113 87 39 63 56 30 1 359 352 348 333 326 322 320 321 331 323 322 319 324 319
258 166 165 53 291 202 169 86 133 138 140 136 132 139 138 144 140 141 137 143 149 156 156 118 84 47 10 34 21 17 356 355 336 320 319 318 321 326 322 317 315 316 316 318
175 132 174 271 154 53 273 198 172 156 125 116 121 134 144 137 140 146 154 155 159 153 145 139 137 94 344 12 21 14 359 343 323 316 315 320 327 320 318 313 312 314 311 309
184 182 171 212 193 164 194 182 171 158 159 149 129 111 96 131 153 146 157 156 156 157 133 128 111 101 321 15 5 346 330 306 309 321 322 322 317 320 312 315 313 311 312 315